Probability
19 35 68 71 74 77 81 77 81 77 74 74 74 74 77 74 71 68 58 58 65 61 68 71 84 77 68 61 65 61 52 55 61 65 58 68 55 45 45 42 39 29 39
23 42 74 74 77 77 81 71 74 71 74 74 65 74 71 71 71 74 65 61 58 61 68 74 74 74 74 58 55 55 48 42 45 39 39 45 39 42 48 39 32 29 39
23 39 65 77 74 77 74 71 77 68 77 71 65 71 71 71 74 71 61 65 65 65 65 68 74 74 58 52 45 48 48 42 45 39 35 19 16 35 45 42 35 39 32
26 32 52 74 77 81 71 74 74 74 65 74 68 65 58 58 61 65 61 61 65 68 65 61 68 52 58 58 58 58 55 58 48 39 10 6 6 29 42 42 35 32 32
23 35 52 68 68 65 68 74 74 71 61 61 71 55 55 55 58 65 65 58 61 65 61 65 61 61 58 61 58 61 55 58 58 26 6 0 3 23 29 29 29 35 35
26 42 48 68 68 68 71 71 71 71 68 71 65 58 52 52 68 61 58 55 55 61 61 55 55 58 61 61 65 52 52 45 32 6 3 3 6 26 32 29 32 29 26
26 32 48 65 71 71 71 68 65 71 71 65 61 58 55 68 65 58 61 48 52 52 61 58 52 52 61 61 55 55 55 42 19 6 3 0 13 26 32 29 29 29 26
26 39 45 61 74 71 68 74 71 71 71 65 58 58 55 58 52 48 48 48 45 45 42 45 48 55 61 61 52 52 55 42 16 10 0 0 16 35 35 32 32 23 19
26 32 39 39 42 55 81 84 84 87 81 77 71 58 52 52 55 48 52 52 45 42 48 45 52 52 52 52 55 48 52 45 13 6 3 3 26 32 32 42 39 32 26
26 26 26 29 32 39 42 74 84 87 81 71 58 52 58 61 58 55 55 55 48 42 45 45 39 39 45 52 45 45 39 32 10 6 3 13 39 42 39 42 39 39 29
19 23 23 19 19 23 32 45 55 58 65 58 45 48 42 23 23 29 45 45 48 42 42 45 42 48 45 39 35 42 35 13 6 3 3 26 45 39 39 39 39 32 29
16 23 13 13 6 16 26 32 35 35 26 29 23 29 26 16 16 29 42 55 52 52 45 39 42 42 35 23 26 35 13 3 3 3 6 39 48 39 45 39 35 29 29
10 13 10 13 13 13 13 19 26 16 19 19 13 13 13 16 19 23 16 29 32 32 26 26 26 23 19 10 10 6 6 6 6 3 16 39 42 48 45 45 29 29 29
13 19 19 19 16 13 13 16 19 13 10 16 16 19 16 16 16 10 3 6 16 16 16 16 10 13 6 6 10 6 6 6 6 6 16 39 42 45 45 42 35 29 26
23 23 26 26 23 16 16 13 10 10 23 16 16 19 19 13 13 10 13 6 6 6 10 6 6 10 10 10 6 6 6 6 6 6 13 42 45 48 45 39 35 35 32
23 23 26 23 23 16 16 16 13 16 16 16 16 16 19 16 16 13 13 10 10 6 6 6 6 6 6 6 6 3 3 6 6 6 10 29 39 48 48 42 42 35 35
16 16 19 23 23 26 26 29 23 19 26 19 16 19 16 16 13 10 13 16 10 10 10 6 6 6 6 3 3 3 3 3 3 6 6 10 16 39 45 39 35 35 29
19 16 16 23 23 23 23 29 26 16 19 19 23 16 16 16 13 10 10 10 10 10 3 6 6 6 6 3 6 6 6 6 3 6 3 6 6 6 26 42 32 35 29
19 23 19 23 19 23 23 29 29 13 13 16 23 16 19 19 16 10 10 6 10 6 3 10 6 6 6 6 6 6 6 6 0 3 3 3 6 6 6 10 32 35 29
13 16 6 19 19 23 23 19 19 19 19 10 16 16 23 19 19 13 10 13 10 3 6 6 6 6 6 3 10 6 6 6 3 0 0 3 3 3 6 6 10 16 35
16 19 16 16 13 16 23 19 23 26 19 16 10 16 26 23 19 16 13 10 6 6 3 6 6 10 3 3 3 3 3 6 3 3 3 0 0 0 3 3 6 6 10
23 16 16 16 19 13 16 29 26 23 19 19 19 23 19 23 19 23 19 13 10 10 6 6 6 3 3 3 3 3 3 0 3 6 3 0 0 0 3 3 3 3 0
26 19 23 26 19 19 16 23 26 26 35 29 26 26 26 32 26 19 23 10 10 10 6 10 6 3 3 0 3 3 3 3 3 3 3 3 3 0 0 0 0 0 0
26 26 29 19 23 26 23 26 23 29 19 26 23 32 26 32 29 29 26 13 6 6 6 10 6 6 10 10 0 0 0 3 0 3 3 0 0 0 0 0 0 3 3
32 32 32 26 26 26 26 26 26 26 26 26 29 29 29 19 35 35 26 16 10 10 10 10 10 13 16 10 6 6 3 3 0 0 0 0 3 3 3 6 0 0 6
32 42 39 35 32 32 32 29 19 26 29 32 35 32 29 29 32 26 29 23 16 16 16 10 10 13 13 10 13 6 6 3 3 0 0 3 3 6 6 6 3 3 6
Height
5878 5877 5875 5873 5872 5870 5870 5870 5870 5870 5870 5870 5871 5871 5871 5872 5872 5872 5872 5872 5872 5872 5872 5873 5873 5873 5874 5874 5875 5875 5876 5876 5877 5878 5879 5879 5880 5881 5881 5882 5882 5882 5882
5878 5877 5875 5873 5870 5868 5867 5868 5869 5869 5870 5870 5870 5870 5870 5871 5871 5871 5872 5872 5872 5871 5871 5871 5872 5872 5872 5873 5873 5874 5875 5876 5877 5878 5878 5879 5880 5880 5881 5881 5882 5882 5882
5879 5877 5876 5873 5871 5868 5867 5867 5868 5869 5870 5870 5869 5869 5869 5870 5870 5871 5871 5871 5871 5871 5870 5870 5871 5871 5871 5872 5873 5873 5874 5876 5877 5878 5878 5879 5879 5880 5880 5881 5881 5881 5881
5879 5878 5876 5874 5872 5870 5868 5868 5869 5870 5870 5870 5870 5869 5869 5869 5869 5870 5870 5870 5870 5870 5870 5869 5869 5870 5870 5870 5872 5873 5874 5875 5876 5878 5878 5879 5879 5879 5880 5881 5881 5881 5881
5880 5879 5877 5876 5874 5873 5871 5871 5871 5871 5871 5871 5871 5870 5869 5869 5870 5870 5870 5869 5869 5869 5868 5868 5868 5868 5868 5869 5871 5872 5874 5875 5876 5877 5878 5879 5879 5879 5880 5880 5880 5880 5880
5881 5880 5879 5877 5876 5875 5874 5873 5873 5873 5872 5872 5871 5871 5870 5869 5869 5869 5869 5868 5868 5867 5867 5867 5867 5867 5867 5869 5870 5872 5874 5875 5876 5877 5878 5879 5879 5879 5880 5880 5880 5880 5880
5882 5881 5880 5879 5877 5877 5876 5875 5875 5874 5874 5873 5872 5872 5871 5869 5869 5868 5868 5867 5867 5867 5866 5866 5866 5866 5867 5869 5871 5872 5874 5875 5876 5877 5878 5879 5879 5879 5879 5879 5879 5879 5879
5883 5882 5881 5880 5879 5878 5878 5877 5876 5876 5875 5874 5874 5872 5870 5868 5867 5867 5867 5867 5867 5866 5866 5866 5866 5866 5868 5869 5871 5872 5874 5875 5876 5877 5878 5878 5879 5879 5879 5879 5879 5878 5878
5885 5884 5883 5882 5881 5880 5879 5879 5878 5877 5876 5876 5875 5873 5870 5866 5864 5865 5866 5867 5867 5866 5865 5866 5866 5867 5868 5869 5870 5872 5873 5875 5876 5877 5878 5878 5878 5878 5878 5878 5878 5878 5878
5886 5885 5884 5883 5882 5882 5881 5880 5879 5878 5878 5877 5876 5874 5872 5868 5865 5866 5867 5867 5866 5865 5864 5865 5867 5868 5868 5869 5871 5872 5873 5875 5876 5877 5877 5877 5877 5878 5878 5878 5878 5877 5877
5888 5887 5885 5884 5884 5883 5882 5882 5881 5880 5879 5878 5877 5876 5874 5871 5870 5869 5869 5868 5866 5863 5862 5864 5867 5868 5869 5870 5871 5872 5873 5874 5875 5876 5877 5877 5877 5877 5877 5877 5877 5877 5877
5890 5888 5887 5886 5885 5884 5883 5883 5882 5881 5881 5880 5879 5878 5876 5875 5873 5872 5871 5869 5866 5863 5863 5865 5867 5869 5869 5870 5870 5871 5873 5874 5875 5876 5876 5876 5876 5876 5876 5877 5876 5876 5876
5891 5890 5888 5887 5886 5885 5885 5884 5883 5883 5882 5881 5880 5879 5878 5876 5875 5874 5873 5871 5869 5867 5867 5868 5869 5869 5870 5870 5870 5871 5872 5873 5875 5875 5876 5876 5876 5876 5876 5876 5875 5875 5875
5892 5891 5890 5889 5888 5887 5886 5885 5884 5883 5883 5882 5881 5880 5879 5878 5877 5876 5874 5873 5872 5871 5870 5871 5871 5871 5871 5871 5871 5871 5872 5873 5874 5875 5875 5876 5876 5876 5875 5875 5875 5875 5874
5894 5892 5891 5890 5889 5888 5887 5886 5885 5884 5883 5883 5882 5881 5880 5879 5878 5877 5876 5875 5874 5873 5873 5872 5872 5872 5872 5872 5872 5872 5873 5874 5874 5875 5875 5875 5875 5875 5875 5874 5874 5874 5874
5895 5894 5892 5891 5890 5889 5888 5887 5886 5885 5885 5884 5883 5882 5881 5880 5879 5878 5877 5876 5875 5874 5874 5873 5873 5873 5873 5873 5873 5873 5874 5874 5874 5875 5875 5874 5875 5874 5874 5874 5873 5873 5873
5897 5895 5894 5893 5892 5891 5890 5888 5887 5886 5885 5884 5883 5882 5881 5880 5880 5879 5877 5877 5876 5875 5875 5874 5874 5874 5873 5873 5873 5874 5874 5874 5874 5874 5874 5874 5874 5874 5873 5873 5872 5872 5871
5898 5897 5895 5894 5893 5892 5890 5889 5888 5887 5886 5885 5884 5883 5882 5881 5880 5879 5878 5877 5876 5876 5875 5875 5875 5874 5874 5874 5874 5874 5874 5874 5874 5874 5873 5873 5873 5872 5872 5871 5871 5870 5870
5899 5897 5896 5895 5893 5892 5891 5890 5889 5888 5887 5885 5884 5883 5883 5881 5880 5879 5879 5878 5877 5876 5875 5875 5875 5875 5874 5874 5874 5874 5874 5873 5873 5873 5872 5872 5872 5871 5871 5870 5869 5869 5868
5899 5898 5896 5895 5894 5893 5892 5891 5889 5888 5887 5886 5885 5884 5883 5881 5880 5879 5879 5878 5877 5876 5876 5875 5875 5874 5874 5874 5874 5873 5873 5873 5872 5872 5871 5871 5870 5870 5869 5869 5868 5867 5866
5900 5898 5897 5896 5894 5893 5892 5891 5890 5889 5887 5886 5885 5884 5883 5882 5881 5880 5879 5878 5877 5876 5875 5875 5874 5874 5873 5873 5873 5872 5872 5872 5871 5871 5870 5870 5869 5868 5867 5867 5866 5865 5863
5900 5899 5897 5896 5894 5893 5892 5891 5890 5889 5888 5887 5885 5884 5883 5882 5880 5879 5878 5877 5877 5875 5875 5874 5873 5873 5872 5872 5872 5871 5871 5871 5870 5869 5869 5868 5867 5866 5865 5865 5864 5863 5861
5900 5898 5897 5895 5894 5893 5892 5890 5889 5888 5887 5886 5885 5884 5882 5881 5880 5879 5878 5877 5876 5874 5873 5872 5871 5871 5871 5870 5870 5870 5869 5868 5868 5867 5866 5866 5865 5864 5863 5862 5861 5860 5859
5899 5898 5896 5895 5893 5892 5891 5890 5889 5887 5886 5885 5884 5883 5882 5880 5879 5878 5877 5875 5874 5873 5871 5870 5870 5869 5869 5868 5868 5867 5867 5866 5865 5865 5864 5863 5862 5861 5860 5860 5858 5857 5856
5898 5897 5895 5894 5893 5891 5890 5889 5888 5886 5885 5884 5882 5881 5880 5879 5878 5876 5875 5874 5872 5871 5870 5868 5867 5867 5866 5866 5865 5864 5864 5863 5862 5862 5860 5859 5859 5858 5857 5856 5855 5853 5852
5897 5896 5894 5893 5892 5890 5889 5888 5886 5885 5883 5882 5881 5880 5878 5877 5876 5875 5873 5872 5870 5868 5867 5866 5865 5864 5864 5863 5862 5861 5860 5860 5859 5858 5857 5856 5855 5854 5853 5852 5851 5850 5849
Wind_Speed
10 9 8 8 7 5 4 3 3 3 2 1 1 1 0 0 0 1 1 0 2 3 3 4 5 5 5 6 6 7 6 6 7 7 7 6 6 6 6 7 6 5 4
10 9 9 9 8 6 5 4 3 3 2 2 1 1 1 1 0 1 1 1 2 3 3 4 5 5 5 6 6 7 6 6 6 6 6 6 6 5 5 5 5 4 4
10 10 10 10 9 7 6 4 3 3 3 3 1 1 0 1 1 1 1 1 2 2 3 4 5 5 5 5 7 7 7 6 5 5 6 6 6 5 5 5 4 4 4
10 10 10 10 9 9 8 6 5 4 4 4 3 2 1 0 0 0 1 1 1 2 2 3 3 4 4 5 7 8 7 6 5 5 6 6 6 5 5 5 5 4 4
10 10 10 10 9 9 9 8 7 5 4 4 4 4 3 2 1 0 1 1 2 2 2 2 3 3 4 5 6 7 7 5 5 5 4 5 6 6 6 5 5 5 4
9 9 9 9 9 9 9 8 7 6 5 5 5 5 4 3 2 2 1 1 2 2 2 2 3 3 4 6 7 6 6 5 5 5 4 4 4 5 5 6 5 5 4
10 9 9 10 9 9 9 9 8 7 6 6 5 5 4 3 2 1 1 1 1 2 2 1 3 4 5 6 6 5 5 5 5 5 4 4 3 3 4 5 5 5 4
9 9 8 9 9 9 9 8 8 7 7 6 6 6 5 4 2 1 0 1 1 2 2 3 4 6 6 6 5 5 5 5 4 4 5 4 4 3 3 4 5 4 3
11 10 9 9 9 8 9 9 8 7 7 6 6 5 6 5 3 2 1 1 1 2 3 4 5 5 5 5 6 6 5 4 4 4 5 5 4 4 3 4 4 3 3
12 10 9 9 8 8 8 9 8 8 7 7 6 6 6 6 5 3 2 2 2 2 4 5 5 6 5 6 6 6 5 5 5 5 5 5 4 3 2 3 3 3 2
12 11 9 9 8 8 9 9 8 8 7 6 6 6 6 6 6 5 4 3 2 2 5 6 6 6 6 5 5 5 5 5 4 4 4 3 3 2 2 2 3 2 2
12 11 10 10 8 8 8 8 8 7 7 6 6 6 5 5 6 5 5 4 4 4 5 6 6 6 5 5 4 5 5 6 5 5 4 3 3 2 2 1 2 1 0
13 12 11 11 10 9 9 8 8 7 7 6 6 6 5 5 5 6 6 6 6 6 5 6 6 6 5 5 5 5 5 5 5 4 4 3 3 2 2 2 1 0 1
13 12 12 11 10 10 9 9 8 8 8 7 7 6 6 6 7 7 6 5 5 5 5 5 5 5 5 4 4 5 5 4 4 3 3 3 2 2 1 1 1 1 1
12 11 11 11 10 10 10 10 9 9 8 7 6 6 7 7 6 7 6 5 5 5 5 5 4 4 4 4 4 5 5 4 4 3 3 2 1 1 1 1 2 1 1
11 11 10 10 10 10 10 10 10 9 9 8 8 7 7 6 6 6 6 5 3 4 4 4 3 2 3 3 4 4 4 3 3 2 2 2 1 1 1 2 2 2 2
10 11 10 9 10 10 10 10 10 10 9 8 8 7 7 6 6 6 6 6 4 3 3 3 3 2 2 3 3 3 3 2 2 2 2 1 2 1 2 3 3 4 3
10 9 9 9 8 9 10 10 10 9 9 9 8 7 7 6 6 6 6 6 5 4 4 5 4 2 1 2 2 2 1 1 1 1 1 2 2 2 2 3 3 4 4
10 9 8 7 7 8 8 8 9 9 8 7 7 7 6 6 6 5 5 5 4 4 5 5 4 3 1 1 1 1 1 1 1 1 1 2 2 3 3 3 3 4 5
10 9 8 7 7 7 7 7 8 8 8 7 7 7 6 6 6 5 5 4 4 4 4 4 3 2 1 1 0 0 1 1 1 2 2 3 3 3 4 4 5 5 5
9 9 8 7 7 7 7 7 7 7 7 7 7 7 6 6 6 5 5 5 4 4 3 3 3 2 1 1 1 1 2 3 3 4 4 4 4 4 5 5 5 6 7
8 9 8 7 6 6 6 6 6 6 6 7 7 7 7 7 6 6 6 5 4 4 4 3 3 2 2 2 2 3 3 4 5 5 6 6 6 6 6 7 7 8 8
8 8 8 7 6 6 6 7 7 7 6 6 7 6 6 6 6 6 5 5 5 5 6 5 5 4 4 4 4 4 5 6 6 7 7 8 8 8 8 9 9 10 10
9 8 8 7 6 6 6 7 7 7 7 7 7 6 5 6 6 6 6 6 6 6 6 6 6 6 6 6 6 6 7 7 8 9 10 10 10 10 10 11 11 11 11
9 8 8 8 7 7 7 7 8 7 7 8 7 6 6 6 6 7 7 7 7 7 7 7 7 7 7 7 8 8 8 8 9 10 11 11 12 12 12 13 12 12 12
9 9 8 8 8 8 8 8 8 8 8 8 7 7 7 7 8 8 9 9 10 9 9 8 8 8 8 9 9 8 8 9 9 10 10 12 13 13 13 14 13 13 14
Wind_Direction
33 33 31 28 24 20 14 14 20 12 17 27 349 299 283 269 30 32 44 196 220 228 232 231 215 216 211 209 207 206 207 206 197 209 209 211 222 224 220 224 222 220 239
31 32 30 26 23 23 22 22 30 23 9 0 317 260 213 179 250 314 274 266 244 239 241 229 213 214 217 217 209 210 202 198 201 203 201 204 209 206 209 206 208 218 240
28 30 33 30 29 33 37 35 43 25 17 8 3 34 103 190 247 261 255 266 262 250 244 229 213 214 213 203 192 196 198 197 195 202 203 199 199 203 201 204 208 219 237
27 29 33 36 38 40 45 50 54 39 33 33 38 36 49 41 232 287 270 276 279 263 247 230 232 223 209 192 189 188 191 200 197 198 200 204 207 206 201 209 212 218 230
29 32 36 42 46 48 52 55 49 43 41 45 53 53 56 62 76 10 285 263 291 267 248 239 233 220 199 188 188 187 188 189 189 190 191 197 196 196 200 212 214 220 227
37 38 42 45 48 51 51 50 48 46 48 50 55 50 49 51 63 45 0 270 282 260 235 228 224 211 185 173 173 177 183 191 191 191 193 200 192 196 208 217 221 226 231
44 44 46 49 52 50 46 44 45 46 51 55 51 45 37 28 27 56 5 334 226 194 186 179 169 170 172 171 177 177 175 185 190 188 189 194 198 214 221 221 219 225 231
46 48 48 50 48 48 45 41 41 45 49 54 49 46 37 27 37 102 72 81 137 158 153 132 140 148 158 169 176 171 175 179 181 184 180 185 195 204 219 217 217 215 231
49 49 48 51 51 50 45 39 41 48 51 54 50 45 39 33 46 101 149 143 124 134 150 134 134 138 145 163 175 184 193 183 172 179 186 193 198 201 207 216 204 207 241
51 49 48 48 50 49 48 45 46 57 58 54 50 47 47 47 55 67 123 140 142 154 164 142 134 136 146 150 163 172 173 162 172 185 191 195 201 206 220 201 198 205 234
49 48 46 47 47 47 48 47 49 57 57 47 45 46 53 52 57 66 83 81 85 139 151 155 147 142 146 150 161 167 169 173 181 192 198 194 199 213 215 203 200 208 241
50 49 46 51 54 51 50 48 52 55 54 45 38 44 55 54 49 55 61 45 57 98 124 144 150 142 143 146 157 167 171 178 185 190 195 193 194 173 160 173 190 199 259
48 50 49 53 54 49 47 48 53 52 47 42 40 44 47 47 48 55 53 55 72 90 109 119 127 128 130 137 146 155 164 165 167 181 192 196 184 161 167 165 139 51 331
46 46 47 49 50 48 48 47 53 49 45 40 37 42 48 46 48 53 57 59 76 88 103 117 122 120 118 122 133 145 157 158 158 168 173 174 177 169 177 182 188 332 341
44 45 47 48 47 45 44 43 46 42 39 38 36 41 45 44 48 46 50 50 59 76 92 108 123 122 122 133 149 160 164 163 170 166 160 160 154 176 245 261 260 278 296
41 42 46 47 45 44 42 41 42 43 42 40 40 40 40 45 46 44 44 48 47 66 79 97 124 116 136 150 151 162 169 170 171 158 154 186 200 288 301 280 275 278 287
39 39 39 41 40 42 42 40 40 44 44 41 41 42 39 40 41 39 37 44 47 53 61 65 90 111 130 150 155 171 186 183 158 155 162 211 245 287 308 297 285 277 280
34 34 34 34 35 35 37 36 34 36 38 40 40 41 38 36 40 45 41 40 43 44 42 46 63 83 128 162 176 189 176 174 163 181 205 241 267 297 313 312 295 284 285
29 28 28 28 31 29 31 33 32 31 30 33 34 32 32 36 41 43 42 38 38 41 43 43 47 59 87 101 104 94 114 163 178 230 242 267 278 287 291 297 293 289 292
22 23 24 23 22 23 26 27 25 26 26 27 28 26 29 36 39 37 37 32 34 41 38 40 42 46 68 85 49 21 312 289 273 283 281 278 275 278 284 291 294 290 289
16 17 13 13 12 16 21 24 23 19 17 21 23 23 20 29 34 33 31 28 29 22 14 13 17 22 360 343 318 290 280 279 278 284 287 288 289 285 288 285 285 288 286
9 8 6 3 4 5 8 14 14 15 16 15 16 15 13 19 27 28 28 23 10 353 346 344 342 333 320 318 310 299 284 276 274 277 281 285 287 283 280 281 284 287 285
359 0 358 358 4 6 3 3 2 1 4 8 8 5 2 8 12 14 16 8 358 350 336 328 314 305 304 302 297 295 294 284 282 279 280 282 286 284 284 286 286 289 288
349 350 348 347 351 353 352 352 348 347 347 350 353 354 353 353 354 354 351 350 352 348 337 325 310 303 300 293 288 287 288 287 284 283 282 281 281 280 282 286 289 287 289
340 338 337 334 331 333 338 339 338 338 337 336 337 333 333 334 335 336 337 336 334 333 326 316 304 303 299 295 293 293 290 286 285 285 285 283 280 280 281 281 283 286 289
337 333 332 331 331 332 332 333 333 330 326 325 323 322 326 325 324 324 323 325 323 320 313 310 306 299 291 287 287 291 293 289 285 285 287 286 284 283 281 279 279 278 283